This is the latest recevied weather packets stored in our database for station/object N9NDF. If no packets are shown the sender has not sent any weather packets the latest 10 day(s).
| Time | Temp. | Humidity | Pressure | Rain* | Wind** | Luminosity | Snow |
|---|---|---|---|---|---|---|---|
| 1778187349 | 17.22° C | 64% | 989.8 hPa | 3.56 mm | - | 676 W/m² | - |
| 1778187290 | 16.67° C | 65% | 989.8 hPa | 3.56 mm | - | 697 W/m² | - |
| 1778187229 | 16.67° C | 65% | 989.9 hPa | 3.56 mm | - | 714 W/m² | - |
| 1778187170 | 16.67° C | 68% | 989.9 hPa | 3.56 mm | - | 734 W/m² | - |
| 1778187109 | 16.67° C | 67% | 989.9 hPa | 3.56 mm | - | 689 W/m² | - |
| 1778187050 | 16.11° C | 67% | 989.9 hPa | 3.56 mm | - | 424 W/m² | - |
| 1778186990 | 16.11° C | 66% | 990 hPa | 3.56 mm | - | 720 W/m² | - |
| 1778186929 | 16.11° C | 66% | 990 hPa | 3.56 mm | - | 737 W/m² | - |
| 1778186869 | 16.11° C | 65% | 990 hPa | 3.56 mm | - | 738 W/m² | - |
| 1778186809 | 16.11° C | 69% | 990 hPa | 3.56 mm | - | 718 W/m² | - |
| 1778186750 | 16.11° C | 66% | 990 hPa | 3.56 mm | - | 704 W/m² | - |
| 1778186688 | 16.11° C | 69% | 990 hPa | 3.56 mm | - | 705 W/m² | - |
| 1778186628 | 16.11° C | 73% | 990.1 hPa | 3.56 mm | - | 698 W/m² | - |
| 1778186568 | 16.11° C | 73% | 990.1 hPa | 3.56 mm | - | 697 W/m² | - |
| 1778186508 | 15.56° C | 74% | 990.1 hPa | 3.56 mm | - | 698 W/m² | - |
| 1778186447 | 15.56° C | 71% | 990.1 hPa | 3.56 mm | - | 701 W/m² | - |
| 1778186388 | 15.56° C | 68% | 990.1 hPa | 3.56 mm | - | 705 W/m² | - |
| 1778186323 | 15.56° C | 68% | 990.1 hPa | 3.56 mm | - | 708 W/m² | - |
| 1778186265 | 15.56° C | 68% | 990.1 hPa | 3.56 mm | - | 711 W/m² | - |
| 1778186204 | 15.56° C | 71% | 990.1 hPa | 3.56 mm | - | 717 W/m² | - |
| 1778186143 | 15° C | 74% | 990.2 hPa | 3.56 mm | - | 722 W/m² | - |
| 1778186084 | 15° C | 74% | 990.2 hPa | 3.56 mm | - | 726 W/m² | - |
| 1778186024 | 15° C | 72% | 990.2 hPa | 3.56 mm | - | 726 W/m² | - |
| 1778185963 | 14.44° C | 73% | 990.2 hPa | 3.56 mm | - | 731 W/m² | - |
| 1778185903 | 14.44° C | 78% | 990.3 hPa | 3.56 mm | - | 734 W/m² | - |
* Rain latest hour (hover to see other rain measurements)
** Current wind speed in m/s (hover to see current wind gust speed)